This is the latest recevied weather packets stored in our database for station/object K6POO-1. If no packets are shown the sender has not sent any weather packets the latest 10 day(s).
| Time | Temp. | Humidity | Pressure | Rain* | Wind** | Luminosity | Snow |
|---|---|---|---|---|---|---|---|
| 1778084101 | 15.56° C | 76% | 1021 hPa | 0 mm | - | 255 W/m² | - |
| 1778083798 | 15° C | 77% | 1020.9 hPa | 0 mm | - | 291 W/m² | - |
| 1778083495 | 15° C | 77% | 1021 hPa | 0 mm | - | 267 W/m² | - |
| 1778083193 | 15° C | 77% | 1021 hPa | 0 mm | - | 218 W/m² | - |
| 1778082891 | 15° C | 78% | 1021 hPa | 0 mm | - | 212 W/m² | - |
| 1778081782 | 14.44° C | 80% | 1021 hPa | 0 mm | - | 147 W/m² | - |
| 1778081480 | 14.44° C | 80% | 1020.8 hPa | 0 mm | - | 120 W/m² | - |
| 1778081177 | 14.44° C | 80% | 1021.1 hPa | 0 mm | - | 105 W/m² | - |
| 1778080874 | 14.44° C | 81% | 1020.9 hPa | 0 mm | - | 116 W/m² | - |
| 1778080573 | 14.44° C | 82% | 1020.9 hPa | 0 mm | - | 185 W/m² | - |
| 1778080269 | 14.44° C | 82% | 1020.9 hPa | 0 mm | - | 132 W/m² | - |
| 1778079966 | 13.89° C | 82% | 1021 hPa | 0 mm | - | 107 W/m² | - |
| 1778079663 | 13.89° C | 82% | 1020.8 hPa | 0 mm | - | 110 W/m² | - |
| 1778079360 | 13.89° C | 81% | 1020.9 hPa | 0 mm | - | 113 W/m² | - |
| 1778079057 | 13.89° C | 82% | 1020.8 hPa | 0 mm | - | 120 W/m² | - |
| 1778078753 | 13.89° C | 82% | 1020.8 hPa | 0 mm | - | 119 W/m² | - |
| 1778078451 | 13.89° C | 82% | 1020.9 hPa | 0 mm | - | 116 W/m² | - |
| 1778078149 | 13.89° C | 82% | 1020.9 hPa | 0 mm | - | 100 W/m² | - |
| 1778077847 | 13.89° C | 83% | 1020.8 hPa | 0 mm | - | 85 W/m² | - |
| 1778077544 | 13.33° C | 83% | 1020.7 hPa | 0 mm | - | 77 W/m² | - |
| 1778077242 | 13.33° C | 83% | 1020.8 hPa | 0 mm | - | 74 W/m² | - |
| 1778076940 | 13.33° C | 83% | 1020.8 hPa | 0 mm | - | 64 W/m² | - |
| 1778076638 | 13.33° C | 84% | 1020.6 hPa | 0 mm | - | 52 W/m² | - |
| 1778076335 | 13.33° C | 84% | 1020.5 hPa | 0 mm | - | 55 W/m² | - |
| 1778076032 | 13.33° C | 84% | 1020.5 hPa | 0 mm | - | 46 W/m² | - |
* Rain latest hour (hover to see other rain measurements)
** Current wind speed in m/s (hover to see current wind gust speed)